This is the latest recevied weather packets stored in our database for station/object S51UL-6. If no packets are shown the sender has not sent any weather packets the latest 1 day(s).
| Time | Temp. | Humidity | Pressure | Rain* | Wind** | Luminosity | Snow |
|---|---|---|---|---|---|---|---|
| 1778000907 | 17.78° C | 57% | 1011.2 hPa | 0 mm | 4.02 m/s, 135° | - | - |
| 1778000607 | 17.78° C | 57% | 1011.2 hPa | 0 mm | 3.58 m/s, 158° | - | - |
| 1778000307 | 18.33° C | 57% | 1011.2 hPa | 0 mm | 3.58 m/s, 158° | - | - |
| 1778000007 | 18.33° C | 56% | 1011.3 hPa | 0 mm | 2.68 m/s, 158° | - | - |
| 1777999407 | 18.33° C | 55% | 1011.3 hPa | 0 mm | 1.79 m/s, 203° | - | - |
| 1777999108 | 18.33° C | 55% | 1011.3 hPa | 0 mm | 2.24 m/s, 158° | - | - |
| 1777998808 | 18.89° C | 54% | 1011.3 hPa | 0 mm | 2.68 m/s, 203° | - | - |
| 1777998508 | 18.89° C | 54% | 1011.4 hPa | 0 mm | 1.34 m/s, 135° | - | - |
| 1777997308 | 18.89° C | 53% | 1011.6 hPa | 0 mm | 1.34 m/s, 203° | - | - |
| 1777997008 | 18.89° C | 52% | 1011.7 hPa | 0 mm | 1.34 m/s, 293° | - | - |
| 1777996708 | 19.44° C | 52% | 1011.6 hPa | 0 mm | 2.24 m/s, 180° | - | - |
| 1777995808 | 19.44° C | 51% | 1011.4 hPa | 0 mm | 2.68 m/s, 180° | - | - |
| 1777995509 | 20° C | 51% | 1011.5 hPa | 0 mm | 1.79 m/s, 248° | - | - |
| 1777995208 | 20° C | 51% | 1011.3 hPa | 0 mm | 2.68 m/s, 135° | - | - |
| 1777994909 | 19.44° C | 51% | 1011.5 hPa | 0 mm | 3.58 m/s, 135° | - | - |
| 1777994308 | 19.44° C | 52% | 1011.4 hPa | 0 mm | 1.79 m/s, 158° | - | - |
| 1777994009 | 19.44° C | 52% | 1011.4 hPa | 0 mm | 2.68 m/s, 158° | - | - |
| 1777993708 | 19.44° C | 52% | 1011.3 hPa | 0 mm | 2.24 m/s, 180° | - | - |
| 1777993408 | 19.44° C | 52% | 1011.6 hPa | 0 mm | 0.89 m/s, 225° | - | - |
| 1777993109 | 19.44° C | 51% | 1011.6 hPa | 0 mm | 0.89 m/s, 158° | - | - |
| 1777992809 | 20° C | 50% | 1011.6 hPa | 0 mm | 2.24 m/s, 158° | - | - |
| 1777992509 | 20° C | 50% | 1011.7 hPa | 0 mm | 1.79 m/s, 180° | - | - |
| 1777992209 | 20° C | 50% | 1011.6 hPa | 0 mm | 1.79 m/s, 158° | - | - |
| 1777991909 | 20° C | 50% | 1011.7 hPa | 0 mm | 3.13 m/s, 158° | - | - |
| 1777991609 | 20° C | 50% | 1011.7 hPa | 0 mm | 4.47 m/s, 180° | - | - |
* Rain latest hour (hover to see other rain measurements)
** Current wind speed in m/s (hover to see current wind gust speed)